Location: *
(31.2983°S, 151.4094°E)
Time: 08:57:45
(UTC+00:00)

Cosmos 1092 Rocket - Pass Details

Date: 25 August 2019
Orbit: 954 x 995 km, 83.0° (Epoch: 18 September)

Event Time Altitude Azimuth Distance (km) Brightness Sun altitude
Rises 19:08:34 0° 183° (S) 3,742 7.0 -15.7°
Reaches altitude 10° 19:11:08 10° 180° (S) 2,785 6.4 -15.1°
Maximum altitude 19:17:32 70° 96° (E) 1,056 4.4 -13.8°
Drops below altitude 10° 19:23:47 10° 13° (NNE) 2,732 6.6 -12.4°
Sets 19:26:17 0° 10° (N) 3,667 7.2 -11.9°
